Location: Caltech
(34.1382°N, 118.1253°W)
Time: 11:57:16
(UTC-07:00)

COSMOS 2428 - Visible Passes

Search period start: 27 August 2014 00:00
Search period end: 06 September 2014 00:00
Orbit: 846 x 856 km, 71.0° (Epoch: 26 August)

Date Brightness Start Highest point End Pass type
(mag) Time Alt. Az. Time Alt. Az. Time Alt. Az.
27 Aug 5.3 04:39:18 10° SE 04:42:31 16° E 04:45:46 10° ENE visible
28 Aug 5.3 04:27:04 10° SE 04:30:18 16° E 04:33:32 10° ENE visible
29 Aug 5.2 04:14:51 10° SE 04:18:04 16° E 04:21:19 10° ENE visible
29 Aug 2.9 05:56:11 10° SW 06:01:44 57° WNW 06:07:19 10° NNE visible
30 Aug 5.2 04:02:37 10° SE 04:05:51 16° E 04:09:05 10° ENE visible
30 Aug 2.8 05:43:58 10° SW 05:49:30 57° WNW 05:55:06 10° NNE visible
31 Aug 5.2 03:50:24 10° SE 03:53:37 16° E 03:56:51 10° ENE visible
31 Aug 2.8 05:31:44 10° SW 05:37:17 57° WNW 05:42:52 10° NNE visible
01 Sep 5.1 03:38:12 10° SE 03:41:24 16° E 03:44:38 10° ENE visible
01 Sep 2.8 05:20:16 14° SW 05:25:03 57° WNW 05:30:39 10° NNE visible
02 Sep 5.0 03:27:07 13° ESE 03:29:10 16° E 03:32:24 10° ENE visible
02 Sep 2.8 05:09:11 22° SW 05:12:49 57° WNW 05:18:25 10° NNE visible
03 Sep 5.0 03:15:56 15° ESE 03:16:56 16° E 03:20:10 10° ENE visible
03 Sep 2.8 04:57:59 31° SW 05:00:36 57° WNW 05:06:11 10° NNE visible
04 Sep 5.0 03:04:40 16° E 03:04:42 16° E 03:07:56 10° ENE visible
04 Sep 2.8 04:46:43 42° WSW 04:48:22 57° WNW 04:53:57 10° NNE visible
05 Sep 5.1 02:53:20 15° E 02:53:20 15° E 02:55:42 10° ENE visible
05 Sep 2.7 04:35:22 53° W 04:36:08 57° WNW 04:41:44 10° NNE visible
